Location: ČR
(50.0000°N, 15.0000°E)
Time: 14:58:02
(UTC+00:00)

Explorer 7 - Pass Details

Date: 25 October 2021
Orbit: 483 x 675 km, 50.3° (Epoch: 27 November)

Event Time Altitude Azimuth Distance (km) Brightness Sun altitude
Rises 01:52:17 0° 285° (WNW) 2,859 - -36.1°
Reaches altitude 10° 01:54:47 10° 273° (W) 1,986 - -35.7°
Maximum altitude 01:58:38 27° 216° (SW) 1,233 - -35.2°
Drops below altitude 10° 02:02:37 10° 159° (SSE) 2,061 - -34.6°
Sets 02:05:16 0° 148° (SSE) 2,989 - -34.2°
